Regional Weather Roundup
Issued by NWS Bismarck, ND

Home | Current Version | Previous Version | Text Only | Print | Product List | Glossary On
Versions: 1 2 3 4 5 6 7 8 9 10 11 12 13 14 15 16 17 18 19 20 21 22 23 24 25 26 27 28 29 30 31 32 33 34 35 36 37 38 39 40 41 42 43 44 45 46 47 48 49 50
000
ASUS43 KBIS 201610
RWRBIS

NWR BROADCAST TEXT
NATIONAL WEATHER SERVICE BISMARCK ND
1000 AM CST FRI JAN 20 2017

NOTE: "FAIR" INDICATES FEW OR NO CLOUDS BELOW 12,000 FEET WITH NO
SIGNIFICANT WEATHER AND/OR OBSTRUCTIONS TO VISIBILITY.


CITY           SKY/WX    TMP DP  RH WIND       PRES   REMARKS
WILLISTON      FAIR      15  13  91 SW3       29.39F
MINOT          FAIR      21  17  84 E3        29.39R
MINOT AFB      SUNNY     17  15  90 CALM      29.38S
BISMARCK       FOG       24  22  91 W6        29.43R VSB 3/4 WCI  17
DICKINSON      FAIR      25  22  88 W12       29.34F WCI  14
GARRISON         N/A     15  13  91 CALM      29.39R
HETTINGER ARPT FAIR      30  26  85 NW12      29.36F
JAMESTOWN      FOG       33  33 100 SE10      29.42F VSB 1
CARRINGTON     FOG       34  34 100 SE10      29.46S VSB<1/4
HAZEN            N/A    N/A N/A N/A NE3       29.42R
MANDAN         FOG       21  19  93 NW3       29.42R VSB 1/4
RUGBY          FOG       28  28 100 S7        29.43R VSB 1
STANLEY        FAIR      21  21 100 W9        29.37F WCI  11
TIOGA          FAIR      18  18 100 S5        29.39R WCI  11
WATFORD CITY   FAIR      21  19  93 S3        29.40R
$$

CITY           SKY/WX    TMP DP  RH WIND       PRES   REMARKS
GRAND FORKS    FOG       36  33  89 SE12      29.51R VSB 1
GRAND FORKS AF FOG       36  34  93 SE10      29.51R VSB 3/4
DEVILS LAKE    MIX PCPN  34  34 100 SE8       29.45F VSB 3/4
FARGO          CLOUDY   N/A N/A N/A SE10      29.52R FOG
CAVALIER       FOG       34  34 100 S10       29.50S VSB 1
GRAFTON        FOG       34  34 100 SE8       29.53R VSB 1/4
GWINNER        CLOUDY    34  34 100 SE15      29.47S
ROLLA            N/A    N/A N/A N/A MISG        N/A
$$

CITY           SKY/WX    TMP DP  RH WIND       PRES   REMARKS
ABERDEEN       CLOUDY    35  32  88 SE10      29.44S
MOBRIDGE       CLOUDY    25  21  85 CALM      29.37R FOG
BUFFALO          N/A     34  28  79 NW24      29.29S
RAPID CITY     FAIR      37  29  72 NW10      29.37F
GLASGOW        CLOUDY    30  25  81 W8        29.42R
SIDNEY         FAIR      17  14  88 S3        29.42R
WOLF POINT     FAIR      19  17  92 CALM      29.43R FOG
GLENDIVE       FAIR      16  13  88 VRB6      29.42F WCI   7
MILES CITY     CLOUDY    31  29  92 SW8       29.44S
BAKER          FAIR      22  19  89 W10       29.41F WCI  11
$$

CITY           SKY/WX    TMP DP  RH WIND       PRES   REMARKS
BILLINGS       CLOUDY    34  27  75 SW15      29.47F
GREAT FALLS    FAIR      34  24  67 W7        29.44R
REGINA         PTCLDY    16  14  93 E5        29.36F WCI   9
ESTEVAN        MOCLDY    10   7  85 CALM      29.37S
$$





USA.gov is the U.S. government's official web portal to all federal, state and local government web resources and services.